BEL1WH EBBR-LGIR

Flight info

Callsign BEL1WH
Flight time 3h 1m
Altitude 37000
Route SOPOK Y863 ROPUV L607 ULNOK DCT VIBOM DCT NOMBO DCT RIDAR DCT RADIZ DCT DARZA DCT PINDO DCT KEA UL607 GIVIS T514 XAVIS
Aircraft A320/M-DE3FGHIJ1LORVWY/H

Departure

Time 2026-04-30 12:08
Airport Brussels Airport (EBBR)

Arrival

Time 2026-04-30 15:09
Airport Heraklion International Nikos Kazantzakis Airport (LGIR)
Time Latitude Longitude Altitude Speed Heading
2026-04-30 11:37 50.90460 4.48789 121 ft 0 kts 155°
2026-04-30 11:54 50.90462 4.48788 117 ft 2 kts 155°
2026-04-30 11:54 50.90485 4.48769 118 ft 4 kts 148°
2026-04-30 11:55 50.90507 4.48745 117 ft 4 kts 138°
2026-04-30 11:55 50.90525 4.48714 116 ft 4 kts 117°
2026-04-30 11:55 50.90531 4.48678 116 ft 3 kts 68°
2026-04-30 11:55 50.90530 4.48674 116 ft 0 kts 65°
2026-04-30 11:58 50.90531 4.48679 116 ft 2 kts 65°
2026-04-30 11:58 50.90540 4.48711 117 ft 5 kts 65°
2026-04-30 11:59 50.90558 4.48773 119 ft 8 kts 66°
2026-04-30 11:59 50.90584 4.48864 117 ft 10 kts 66°
2026-04-30 11:59 50.90616 4.48978 118 ft 12 kts 64°
2026-04-30 11:59 50.90644 4.49107 121 ft 12 kts 97°
2026-04-30 12:00 50.90582 4.49182 121 ft 10 kts 155°
2026-04-30 12:00 50.90520 4.49226 123 ft 10 kts 156°
2026-04-30 12:00 50.90445 4.49281 120 ft 14 kts 155°
2026-04-30 12:00 50.90363 4.49340 122 ft 12 kts 152°
2026-04-30 12:01 50.90289 4.49405 126 ft 12 kts 177°
2026-04-30 12:01 50.90215 4.49378 125 ft 10 kts 195°
2026-04-30 12:01 50.90147 4.49349 126 ft 12 kts 194°
2026-04-30 12:01 50.90053 4.49310 130 ft 15 kts 194°
2026-04-30 12:02 50.89959 4.49272 134 ft 15 kts 194°
2026-04-30 12:02 50.89857 4.49232 140 ft 15 kts 194°
2026-04-30 12:02 50.89757 4.49192 146 ft 14 kts 194°
2026-04-30 12:02 50.89661 4.49151 151 ft 13 kts 200°
2026-04-30 12:03 50.89577 4.49073 155 ft 18 kts 202°
2026-04-30 12:03 50.89386 4.49020 163 ft 9 kts 151°
2026-04-30 12:03 50.89330 4.49083 166 ft 13 kts 167°
2026-04-30 12:04 50.89312 4.49083 167 ft 0 kts 184°
2026-04-30 12:05 50.89302 4.49081 168 ft 2 kts 189°
2026-04-30 12:05 50.89281 4.49073 169 ft 8 kts 193°
2026-04-30 12:05 50.89251 4.49061 171 ft 1 kts 194°
2026-04-30 12:06 50.89250 4.49060 171 ft 1 kts 194°
2026-04-30 12:06 50.89248 4.49060 172 ft 0 kts 194°
2026-04-30 12:06 50.89234 4.49054 173 ft 7 kts 194°
2026-04-30 12:06 50.89175 4.49039 176 ft 7 kts 171°
2026-04-30 12:07 50.89153 4.49111 176 ft 9 kts 79°
2026-04-30 12:07 50.89173 4.49221 176 ft 12 kts 71°
2026-04-30 12:07 50.89246 4.49546 176 ft 63 kts 70°
2026-04-30 12:07 50.89473 4.50521 176 ft 123 kts 70°
2026-04-30 12:08 50.89819 4.52022 318 ft 154 kts 71°
2026-04-30 12:08 50.90212 4.53508 1149 ft 145 kts 66°
2026-04-30 12:08 50.90671 4.54941 1856 ft 148 kts 67°
2026-04-30 12:08 50.91168 4.56462 2307 ft 166 kts 67°
2026-04-30 12:09 50.91725 4.58172 2646 ft 188 kts 68°
2026-04-30 12:09 50.92358 4.60121 2960 ft 211 kts 68°
2026-04-30 12:09 50.93067 4.62306 3301 ft 235 kts 68°
2026-04-30 12:09 50.93778 4.64731 3875 ft 247 kts 77°
2026-04-30 12:10 50.94295 4.67346 4696 ft 250 kts 77°
2026-04-30 12:10 50.94809 4.69998 5575 ft 253 kts 77°
2026-04-30 12:10 50.95324 4.72681 6425 ft 255 kts 78°
2026-04-30 12:10 50.95516 4.75459 7209 ft 254 kts 97°
2026-04-30 12:11 50.95065 4.78160 7985 ft 256 kts 116°
2026-04-30 12:11 50.94015 4.80456 8755 ft 261 kts 135°
2026-04-30 12:11 50.92611 4.82325 9538 ft 265 kts 139°
2026-04-30 12:11 50.91167 4.84204 10293 ft 271 kts 139°
2026-04-30 12:12 50.89639 4.86064 10702 ft 288 kts 145°
2026-04-30 12:12 50.87770 4.87551 10886 ft 314 kts 157°
2026-04-30 12:12 50.85573 4.88389 11216 ft 334 kts 170°
2026-04-30 12:12 50.84028 4.88616 11622 ft 338 kts 171°
2026-04-30 12:13 50.81672 4.88966 12292 ft 342 kts 171°
2026-04-30 12:13 50.79288 4.89338 12953 ft 346 kts 171°
2026-04-30 12:13 50.76878 4.89722 13632 ft 350 kts 171°
2026-04-30 12:13 50.74437 4.90112 14237 ft 355 kts 171°
2026-04-30 12:14 50.71962 4.90531 14802 ft 358 kts 168°
2026-04-30 12:14 50.69582 4.91599 15384 ft 357 kts 154°
2026-04-30 12:14 50.67460 4.93591 15954 ft 356 kts 139°
2026-04-30 12:14 50.65739 4.96372 16537 ft 355 kts 125°
2026-04-30 12:15 50.64527 4.99764 17105 ft 357 kts 110°
2026-04-30 12:15 50.63745 5.03483 17694 ft 359 kts 107°
2026-04-30 12:15 50.62979 5.07248 18259 ft 363 kts 108°
2026-04-30 12:15 50.62202 5.11044 18778 ft 366 kts 108°
2026-04-30 12:16 50.61411 5.14875 19293 ft 368 kts 107°
2026-04-30 12:16 50.60614 5.18714 19783 ft 371 kts 107°
2026-04-30 12:16 50.59822 5.22540 20280 ft 374 kts 107°
2026-04-30 12:16 50.59002 5.26441 20772 ft 377 kts 110°
2026-04-30 12:17 50.55679 5.32860 21722 ft 388 kts 136°
2026-04-30 12:17 50.53666 5.35697 22191 ft 391 kts 135°
2026-04-30 12:17 50.51650 5.38587 22663 ft 394 kts 135°
2026-04-30 12:18 50.49640 5.41528 23131 ft 396 kts 134°
2026-04-30 12:18 50.47629 5.44509 23576 ft 399 kts 134°
2026-04-30 12:18 50.45607 5.47517 23988 ft 402 kts 134°
2026-04-30 12:18 50.43574 5.50545 24351 ft 404 kts 134°
2026-04-30 12:19 50.41526 5.53579 24731 ft 406 kts 134°
2026-04-30 12:19 50.39460 5.56625 25088 ft 408 kts 134°
2026-04-30 12:19 50.37383 5.59679 25410 ft 410 kts 134°
2026-04-30 12:19 50.35295 5.62746 25750 ft 412 kts 134°
2026-04-30 12:20 50.33201 5.65814 26090 ft 414 kts 134°
2026-04-30 12:20 50.31299 5.69168 26406 ft 411 kts 121°
2026-04-30 12:20 50.30067 5.73174 26758 ft 409 kts 105°
2026-04-30 12:20 50.29519 5.77541 27076 ft 409 kts 97°
2026-04-30 12:21 50.29101 5.81942 27409 ft 411 kts 97°
2026-04-30 12:21 50.28685 5.86382 27725 ft 412 kts 97°
2026-04-30 12:21 50.28269 5.90838 28051 ft 414 kts 97°
2026-04-30 12:21 50.27849 5.95300 28375 ft 416 kts 97°
2026-04-30 12:22 50.27422 5.99777 28675 ft 417 kts 97°
2026-04-30 12:22 50.26987 6.04263 28994 ft 418 kts 97°
2026-04-30 12:22 50.26549 6.08759 29287 ft 419 kts 97°
2026-04-30 12:22 50.26112 6.13220 29560 ft 420 kts 97°
2026-04-30 12:23 50.25667 6.17744 29830 ft 422 kts 97°
2026-04-30 12:23 50.25217 6.22279 30107 ft 423 kts 97°
2026-04-30 12:23 50.24764 6.26835 30354 ft 424 kts 97°
2026-04-30 12:23 50.24311 6.31393 30566 ft 425 kts 97°
2026-04-30 12:24 50.23858 6.35965 30758 ft 426 kts 97°
2026-04-30 12:24 50.23404 6.40532 31016 ft 426 kts 98°
2026-04-30 12:24 50.22946 6.45098 31291 ft 425 kts 97°
2026-04-30 12:24 50.22485 6.49653 31566 ft 424 kts 97°
2026-04-30 12:25 50.22026 6.54199 31842 ft 423 kts 97°
2026-04-30 12:25 50.21566 6.58736 32116 ft 423 kts 97°
2026-04-30 12:25 50.21104 6.63266 32391 ft 422 kts 98°
2026-04-30 12:25 50.20639 6.67788 32651 ft 422 kts 98°
2026-04-30 12:26 50.20172 6.72303 32934 ft 421 kts 98°
2026-04-30 12:26 50.19706 6.76810 33205 ft 420 kts 98°
2026-04-30 12:26 50.19241 6.81311 33480 ft 420 kts 98°
2026-04-30 12:26 50.18773 6.85805 33741 ft 419 kts 98°
2026-04-30 12:27 50.18302 6.90290 34017 ft 419 kts 97°
2026-04-30 12:27 50.17828 6.94776 34226 ft 419 kts 97°
2026-04-30 12:27 50.17353 6.99267 34460 ft 419 kts 97°
2026-04-30 12:27 50.16881 7.03753 34688 ft 419 kts 97°
2026-04-30 12:28 50.16409 7.08235 34886 ft 419 kts 97°
2026-04-30 12:28 50.15934 7.12717 35091 ft 419 kts 97°
2026-04-30 12:28 50.15460 7.17133 35286 ft 418 kts 98°
2026-04-30 12:28 50.14977 7.21607 35475 ft 418 kts 98°
2026-04-30 12:29 50.14494 7.26079 35642 ft 418 kts 98°
2026-04-30 12:29 50.14010 7.30552 35823 ft 418 kts 98°
2026-04-30 12:29 50.13525 7.35023 36012 ft 418 kts 97°
2026-04-30 12:29 50.13037 7.39507 36157 ft 419 kts 97°
2026-04-30 12:30 50.12547 7.43974 36305 ft 419 kts 97°
2026-04-30 12:30 50.12053 7.48462 36467 ft 419 kts 97°
2026-04-30 12:30 50.11560 7.52929 36638 ft 419 kts 97°
2026-04-30 12:30 50.11064 7.57404 36791 ft 419 kts 97°
2026-04-30 12:31 50.10566 7.61879 36938 ft 419 kts 97°
2026-04-30 12:31 50.10068 7.66353 37074 ft 419 kts 97°
2026-04-30 12:31 50.09568 7.70826 37237 ft 419 kts 97°
2026-04-30 12:31 50.09066 7.75292 37359 ft 419 kts 97°
2026-04-30 12:32 50.08059 7.84231 37383 ft 419 kts 97°
2026-04-30 12:32 50.06239 7.92868 37399 ft 426 kts 115°
2026-04-30 12:33 50.02993 8.00641 37405 ft 429 kts 120°
2026-04-30 12:33 49.99642 8.08331 37417 ft 430 kts 120°
2026-04-30 12:34 49.96291 8.16006 37421 ft 430 kts 120°
2026-04-30 12:34 49.92921 8.23685 37438 ft 430 kts 120°
2026-04-30 12:35 49.89547 8.31357 37389 ft 431 kts 120°
2026-04-30 12:35 49.86166 8.39013 37384 ft 431 kts 120°
2026-04-30 12:36 49.82686 8.46527 37382 ft 433 kts 123°
2026-04-30 12:36 49.78903 8.53807 37384 ft 434 kts 125°
2026-04-30 12:37 49.75065 8.61004 37382 ft 434 kts 125°
2026-04-30 12:37 49.71274 8.68257 37379 ft 434 kts 124°
2026-04-30 12:38 49.67510 8.75546 37381 ft 433 kts 124°
2026-04-30 12:38 49.63747 8.82815 37379 ft 433 kts 124°
2026-04-30 12:39 49.59978 8.90054 37374 ft 433 kts 124°
2026-04-30 12:39 49.56202 8.97288 37371 ft 433 kts 124°
2026-04-30 12:40 49.52409 9.04514 37359 ft 434 kts 124°
2026-04-30 12:40 49.48607 9.11731 37349 ft 434 kts 124°
2026-04-30 12:41 49.45055 9.19199 37352 ft 431 kts 118°
2026-04-30 12:41 49.41781 9.26931 37345 ft 432 kts 118°
2026-04-30 12:42 49.38504 9.34615 37358 ft 433 kts 118°
2026-04-30 12:42 49.35194 9.42331 37378 ft 433 kts 118°
2026-04-30 12:43 49.31883 9.50056 37370 ft 434 kts 118°
2026-04-30 12:43 49.28558 9.57802 37365 ft 434 kts 118°
2026-04-30 12:44 49.25225 9.65528 37366 ft 434 kts 118°
2026-04-30 12:44 49.21892 9.73233 37368 ft 435 kts 118°
2026-04-30 12:45 49.18546 9.80934 37398 ft 435 kts 118°
2026-04-30 12:45 49.15194 9.88637 37389 ft 435 kts 118°
2026-04-30 12:46 49.11829 9.96348 37385 ft 436 kts 118°
2026-04-30 12:46 49.08453 10.04032 37390 ft 437 kts 118°
2026-04-30 12:47 49.04727 10.11323 37392 ft 444 kts 130°
2026-04-30 12:47 49.00359 10.17967 37410 ft 445 kts 129°
2026-04-30 12:48 48.95967 10.24626 37409 ft 445 kts 129°
2026-04-30 12:48 48.91571 10.31282 37406 ft 446 kts 129°
2026-04-30 12:49 48.87169 10.37930 37399 ft 446 kts 129°
2026-04-30 12:49 48.82765 10.44567 37409 ft 446 kts 130°
2026-04-30 12:50 48.78353 10.51195 37406 ft 446 kts 130°
2026-04-30 12:50 48.73930 10.57828 37423 ft 447 kts 129°
2026-04-30 12:51 48.69498 10.64445 37393 ft 448 kts 130°
2026-04-30 12:51 48.65044 10.71061 37388 ft 448 kts 130°
2026-04-30 12:52 48.60624 10.77628 37388 ft 449 kts 130°
2026-04-30 12:52 48.56510 10.84632 37380 ft 444 kts 123°
2026-04-30 12:53 48.52624 10.91879 37403 ft 444 kts 123°
2026-04-30 12:53 48.48718 10.99121 37371 ft 445 kts 123°
2026-04-30 12:54 48.44792 11.06353 37365 ft 446 kts 123°
2026-04-30 12:54 48.40854 11.13592 37366 ft 446 kts 123°
2026-04-30 12:55 48.36916 11.20830 37369 ft 446 kts 123°
2026-04-30 12:55 48.33009 11.28011 37386 ft 447 kts 123°
2026-04-30 12:56 48.29063 11.35238 37374 ft 447 kts 123°
2026-04-30 12:56 48.25101 11.42448 37367 ft 448 kts 123°
2026-04-30 12:57 48.21133 11.49655 37362 ft 447 kts 123°
2026-04-30 12:57 48.17164 11.56846 37363 ft 448 kts 124°
2026-04-30 12:58 48.13862 11.62829 37388 ft 448 kts 123°
2026-04-30 12:58 48.09886 11.70025 37387 ft 449 kts 124°
2026-04-30 12:59 48.05889 11.77215 37378 ft 449 kts 124°
2026-04-30 12:59 48.01894 11.84385 37367 ft 449 kts 124°
2026-04-30 13:00 47.97887 11.91568 37358 ft 450 kts 124°
2026-04-30 13:00 47.93877 11.98729 37377 ft 450 kts 124°
2026-04-30 13:01 47.89845 12.05905 37368 ft 451 kts 124°
2026-04-30 13:01 47.85832 12.13026 37360 ft 452 kts 124°
2026-04-30 13:02 47.81794 12.20181 37349 ft 452 kts 124°
2026-04-30 13:02 47.77740 12.27323 37350 ft 452 kts 125°
2026-04-30 13:03 47.73679 12.34460 37341 ft 452 kts 125°
2026-04-30 13:03 47.69618 12.41603 37326 ft 453 kts 125°
2026-04-30 13:04 47.65549 12.48743 37324 ft 453 kts 125°
2026-04-30 13:04 47.61228 12.55588 37313 ft 460 kts 135°
2026-04-30 13:05 47.56276 12.61608 37321 ft 460 kts 135°
2026-04-30 13:06 47.48845 12.70631 37300 ft 462 kts 136°
2026-04-30 13:06 47.43867 12.76658 37283 ft 462 kts 136°
2026-04-30 13:07 47.38879 12.82679 37271 ft 463 kts 136°
2026-04-30 13:07 47.33922 12.88649 37270 ft 463 kts 136°
2026-04-30 13:08 47.28920 12.94652 37290 ft 464 kts 136°
2026-04-30 13:08 47.23910 13.00654 37270 ft 465 kts 137°
2026-04-30 13:09 47.18879 13.06662 37255 ft 466 kts 137°
2026-04-30 13:09 47.13842 13.12671 37266 ft 467 kts 137°
2026-04-30 13:10 47.08792 13.18680 37262 ft 468 kts 137°
2026-04-30 13:10 47.03731 13.24668 37294 ft 467 kts 137°
2026-04-30 13:11 46.98675 13.30651 37258 ft 468 kts 137°
2026-04-30 13:11 46.93594 13.36651 37266 ft 470 kts 137°
2026-04-30 13:12 46.88493 13.42663 37259 ft 470 kts 137°
2026-04-30 13:12 46.83380 13.48666 37276 ft 472 kts 138°
2026-04-30 13:13 46.75686 13.57664 37308 ft 473 kts 139°
2026-04-30 13:14 46.67985 13.66661 37312 ft 473 kts 139°
2026-04-30 13:14 46.60300 13.75583 37318 ft 473 kts 139°
2026-04-30 13:15 46.52704 13.84368 37346 ft 473 kts 139°
2026-04-30 13:16 46.47544 13.90325 37330 ft 474 kts 139°
2026-04-30 13:16 46.42373 13.96274 37331 ft 475 kts 139°
2026-04-30 13:17 46.34648 14.05156 37332 ft 475 kts 139°
2026-04-30 13:18 46.26878 14.14046 37353 ft 475 kts 140°
2026-04-30 13:18 46.19088 14.22908 37348 ft 475 kts 140°
2026-04-30 13:19 46.13877 14.28803 37341 ft 476 kts 140°
2026-04-30 13:19 46.08672 14.34697 37341 ft 476 kts 140°
2026-04-30 13:20 46.03463 14.40594 37332 ft 477 kts 140°
2026-04-30 13:20 45.98230 14.46485 37344 ft 478 kts 141°
2026-04-30 13:21 45.92999 14.52369 37343 ft 478 kts 141°
2026-04-30 13:22 45.85173 14.61148 37343 ft 478 kts 141°
2026-04-30 13:22 45.77293 14.69939 37377 ft 479 kts 141°
2026-04-30 13:23 45.69405 14.78718 37368 ft 479 kts 141°
2026-04-30 13:24 45.58875 14.90385 37351 ft 479 kts 141°
2026-04-30 13:25 45.48394 15.02187 37355 ft 480 kts 136°
2026-04-30 13:26 45.36173 15.18407 37352 ft 481 kts 136°
2026-04-30 13:28 45.23909 15.34572 37343 ft 483 kts 136°
2026-04-30 13:28 45.16508 15.44276 37351 ft 483 kts 136°
2026-04-30 13:29 45.06620 15.57188 37351 ft 484 kts 137°
2026-04-30 13:31 44.94234 15.73267 37334 ft 484 kts 137°
2026-04-30 13:32 44.81855 15.89263 37327 ft 484 kts 137°
2026-04-30 13:33 44.71877 16.02065 37325 ft 485 kts 137°
2026-04-30 13:34 44.64385 16.11637 37326 ft 485 kts 137°
2026-04-30 13:35 44.54394 16.24357 37303 ft 485 kts 138°
2026-04-30 13:36 44.44371 16.37044 37309 ft 486 kts 138°
2026-04-30 13:36 44.36832 16.46552 37277 ft 487 kts 139°
2026-04-30 13:37 44.29301 16.56035 37286 ft 488 kts 139°
2026-04-30 13:38 44.21716 16.65512 37304 ft 488 kts 139°
2026-04-30 13:39 44.11593 16.78132 37271 ft 488 kts 140°
2026-04-30 13:40 44.04011 16.87563 37290 ft 487 kts 140°
2026-04-30 13:40 43.98982 16.93784 37284 ft 487 kts 140°
2026-04-30 13:41 43.93919 17.00035 37261 ft 487 kts 140°
2026-04-30 13:41 43.88856 17.06274 37236 ft 487 kts 140°
2026-04-30 13:42 43.83788 17.12500 37226 ft 487 kts 140°
2026-04-30 13:42 43.76182 17.21823 37217 ft 487 kts 141°
2026-04-30 13:43 43.71104 17.28029 37214 ft 487 kts 140°
2026-04-30 13:43 43.66022 17.34237 37188 ft 488 kts 141°
2026-04-30 13:44 43.60931 17.40440 37197 ft 488 kts 141°
2026-04-30 13:44 43.55858 17.46593 37193 ft 489 kts 141°
2026-04-30 13:45 43.48177 17.55878 37198 ft 490 kts 141°
2026-04-30 13:46 43.43046 17.62058 37189 ft 490 kts 141°
2026-04-30 13:46 43.37914 17.68236 37178 ft 490 kts 141°
2026-04-30 13:47 43.32778 17.74404 37181 ft 490 kts 141°
2026-04-30 13:47 43.27636 17.80563 37179 ft 491 kts 141°
2026-04-30 13:48 43.22494 17.86714 37177 ft 490 kts 141°
2026-04-30 13:48 43.17342 17.92862 37152 ft 491 kts 142°
2026-04-30 13:49 43.12190 17.98983 37152 ft 491 kts 142°
2026-04-30 13:49 43.07027 18.05110 37145 ft 491 kts 142°
2026-04-30 13:50 43.01855 18.11243 37142 ft 492 kts 142°
2026-04-30 13:50 42.94131 18.20361 37126 ft 492 kts 142°
2026-04-30 13:51 42.88939 18.26464 37119 ft 492 kts 142°
2026-04-30 13:51 42.83752 18.32561 37122 ft 492 kts 142°
2026-04-30 13:52 42.78560 18.38651 37120 ft 493 kts 142°
2026-04-30 13:52 42.73358 18.44726 37130 ft 493 kts 143°
2026-04-30 13:53 42.68156 18.50799 37108 ft 493 kts 143°
2026-04-30 13:53 42.63829 18.55835 37117 ft 493 kts 143°
2026-04-30 13:54 42.57728 18.62915 37122 ft 493 kts 143°
2026-04-30 13:54 42.52508 18.68957 37125 ft 493 kts 143°
2026-04-30 13:55 42.47316 18.74960 37124 ft 493 kts 143°
2026-04-30 13:55 42.42089 18.81002 37131 ft 493 kts 144°
2026-04-30 13:56 42.37739 18.86007 37147 ft 493 kts 144°
2026-04-30 13:56 42.32502 18.92010 37154 ft 494 kts 144°
2026-04-30 13:57 42.27266 18.98004 37159 ft 494 kts 144°
2026-04-30 13:57 42.22024 19.04005 37144 ft 494 kts 144°
2026-04-30 13:58 42.14144 19.12994 37139 ft 495 kts 144°
2026-04-30 13:59 42.08887 19.18965 37144 ft 495 kts 144°
2026-04-30 13:59 42.03615 19.24936 37147 ft 495 kts 144°
2026-04-30 14:00 41.98349 19.30895 37152 ft 495 kts 144°
2026-04-30 14:00 41.90445 19.39829 37139 ft 495 kts 145°
2026-04-30 14:01 41.85160 19.45778 37150 ft 495 kts 145°
2026-04-30 14:01 41.79912 19.51673 37139 ft 495 kts 145°
2026-04-30 14:02 41.74620 19.57606 37142 ft 495 kts 145°
2026-04-30 14:02 41.69322 19.63523 37110 ft 495 kts 145°
2026-04-30 14:03 41.64021 19.69427 37123 ft 495 kts 145°
2026-04-30 14:03 41.58755 19.75291 37115 ft 496 kts 145°
2026-04-30 14:04 41.53430 19.81209 37110 ft 495 kts 145°
2026-04-30 14:04 41.48136 19.87078 37102 ft 494 kts 145°
2026-04-30 14:05 41.42877 19.92892 37106 ft 493 kts 145°
2026-04-30 14:05 41.37596 19.98723 37111 ft 493 kts 145°
2026-04-30 14:06 41.29686 20.07425 37105 ft 492 kts 145°
2026-04-30 14:07 41.21769 20.16096 37079 ft 491 kts 145°
2026-04-30 14:08 41.13869 20.24738 37101 ft 490 kts 146°
2026-04-30 14:08 41.05975 20.33333 37100 ft 489 kts 146°
2026-04-30 14:09 41.00717 20.39045 37083 ft 488 kts 145°
2026-04-30 14:10 40.92826 20.47598 37079 ft 488 kts 145°
2026-04-30 14:10 40.87578 20.53273 37085 ft 488 kts 146°
2026-04-30 14:11 40.82358 20.58905 37083 ft 487 kts 146°
2026-04-30 14:11 40.77113 20.64550 37075 ft 486 kts 146°
2026-04-30 14:12 40.71863 20.70189 37073 ft 486 kts 146°
2026-04-30 14:12 40.66626 20.75798 37049 ft 485 kts 146°
2026-04-30 14:13 40.61377 20.81420 37056 ft 485 kts 146°
2026-04-30 14:13 40.56138 20.87013 37059 ft 485 kts 146°
2026-04-30 14:14 40.50905 20.92586 37059 ft 484 kts 146°
2026-04-30 14:14 40.45735 20.98176 37052 ft 485 kts 143°
2026-04-30 14:15 40.40763 21.04175 37034 ft 486 kts 140°
2026-04-30 14:15 40.35884 21.10314 37035 ft 486 kts 140°
2026-04-30 14:16 40.30946 21.16365 37040 ft 485 kts 141°
2026-04-30 14:16 40.25992 21.22286 37038 ft 485 kts 142°
2026-04-30 14:17 40.20991 21.28224 37037 ft 485 kts 141°
2026-04-30 14:17 40.16017 21.34176 37008 ft 484 kts 141°
2026-04-30 14:18 40.11049 21.40131 37008 ft 485 kts 141°
2026-04-30 14:18 40.03585 21.49036 37004 ft 485 kts 141°
2026-04-30 14:19 39.96098 21.57937 37000 ft 485 kts 141°
2026-04-30 14:20 39.91101 21.63848 36992 ft 485 kts 141°
2026-04-30 14:20 39.83601 21.72701 36996 ft 484 kts 141°
2026-04-30 14:21 39.78610 21.78596 36999 ft 484 kts 141°
2026-04-30 14:22 39.71122 21.87417 36994 ft 483 kts 141°
2026-04-30 14:22 39.63647 21.96183 36967 ft 482 kts 141°
2026-04-30 14:23 39.53699 22.07790 36985 ft 482 kts 141°
2026-04-30 14:24 39.46203 22.16509 36966 ft 482 kts 141°
2026-04-30 14:25 39.36232 22.28088 36972 ft 481 kts 141°
2026-04-30 14:26 39.28743 22.36738 36989 ft 481 kts 141°
2026-04-30 14:27 39.21266 22.45361 36989 ft 480 kts 141°
2026-04-30 14:27 39.16316 22.51047 36994 ft 479 kts 141°
2026-04-30 14:28 39.08852 22.59599 36977 ft 478 kts 141°
2026-04-30 14:28 39.03883 22.65294 36981 ft 477 kts 142°
2026-04-30 14:29 38.94790 22.75658 36986 ft 477 kts 142°
2026-04-30 14:31 38.81515 22.90751 36969 ft 478 kts 142°
2026-04-30 14:31 38.74065 22.99168 36964 ft 479 kts 142°
2026-04-30 14:32 38.66565 23.07620 36976 ft 479 kts 142°
2026-04-30 14:33 38.61558 23.13248 36975 ft 479 kts 142°
2026-04-30 14:33 38.54057 23.21684 36987 ft 478 kts 142°
2026-04-30 14:34 38.48687 23.26550 36972 ft 471 kts 155°
2026-04-30 14:34 38.43011 23.30720 36973 ft 471 kts 155°
2026-04-30 14:35 38.34470 23.36954 36981 ft 471 kts 155°
2026-04-30 14:36 38.28773 23.41112 36984 ft 471 kts 155°
2026-04-30 14:36 38.23118 23.45235 36979 ft 471 kts 155°
2026-04-30 14:37 38.17419 23.49370 36980 ft 472 kts 155°
2026-04-30 14:37 38.11720 23.53503 36979 ft 472 kts 155°
2026-04-30 14:38 38.06017 23.57624 36983 ft 472 kts 155°
2026-04-30 14:38 38.00314 23.61743 36970 ft 472 kts 155°
2026-04-30 14:39 37.94609 23.65864 37002 ft 471 kts 155°
2026-04-30 14:39 37.88903 23.69972 37009 ft 471 kts 155°
2026-04-30 14:40 37.80391 23.76095 37007 ft 471 kts 155°
2026-04-30 14:40 37.74684 23.80191 36991 ft 472 kts 155°
2026-04-30 14:41 37.68967 23.84282 37000 ft 472 kts 155°
2026-04-30 14:41 37.63258 23.88353 37005 ft 472 kts 155°
2026-04-30 14:42 37.57542 23.92427 37010 ft 472 kts 155°
2026-04-30 14:42 37.52782 23.95814 37012 ft 472 kts 155°
2026-04-30 14:43 37.47066 23.99880 36982 ft 472 kts 155°
2026-04-30 14:43 37.41333 24.03945 36990 ft 472 kts 155°
2026-04-30 14:44 37.35642 24.07978 37003 ft 472 kts 155°
2026-04-30 14:44 37.29917 24.12025 37005 ft 472 kts 155°
2026-04-30 14:45 37.24189 24.16065 36970 ft 472 kts 156°
2026-04-30 14:45 37.18448 24.20104 36980 ft 473 kts 156°
2026-04-30 14:46 37.12706 24.24143 36981 ft 473 kts 156°
2026-04-30 14:46 37.06957 24.28181 36986 ft 474 kts 156°
2026-04-30 14:47 37.01204 24.32214 36984 ft 474 kts 156°
2026-04-30 14:47 36.95445 24.36241 36965 ft 474 kts 156°
2026-04-30 14:48 36.89677 24.40268 36970 ft 475 kts 156°
2026-04-30 14:48 36.83929 24.44279 36437 ft 479 kts 156°
2026-04-30 14:49 36.80990 24.46321 35306 ft 487 kts 155°
2026-04-30 14:49 36.77983 24.48410 34368 ft 489 kts 155°
2026-04-30 14:49 36.75014 24.50470 33434 ft 488 kts 155°
2026-04-30 14:49 36.72102 24.52492 32599 ft 484 kts 155°
2026-04-30 14:50 36.66263 24.56549 31284 ft 474 kts 155°
2026-04-30 14:50 36.63395 24.58543 30665 ft 470 kts 155°
2026-04-30 14:51 36.57734 24.62461 29395 ft 461 kts 155°
2026-04-30 14:51 36.54942 24.64390 28726 ft 456 kts 155°
2026-04-30 14:51 36.49422 24.68196 27347 ft 451 kts 154°
2026-04-30 14:52 36.46686 24.70078 26695 ft 448 kts 154°
2026-04-30 14:52 36.41301 24.73779 25392 ft 442 kts 154°
2026-04-30 14:52 36.38617 24.75621 24770 ft 439 kts 153°
2026-04-30 14:53 36.33298 24.79269 23563 ft 434 kts 153°
2026-04-30 14:53 36.30665 24.81074 22860 ft 431 kts 153°
2026-04-30 14:54 36.25433 24.84661 21492 ft 428 kts 153°
2026-04-30 14:54 36.20237 24.88221 20180 ft 425 kts 153°
2026-04-30 14:55 36.15072 24.91752 18924 ft 423 kts 153°
2026-04-30 14:55 36.12500 24.93509 18322 ft 422 kts 153°
2026-04-30 14:55 36.07373 24.96997 16957 ft 420 kts 153°
2026-04-30 14:56 36.02298 25.00446 15649 ft 418 kts 153°
2026-04-30 14:56 35.97218 25.03895 14379 ft 415 kts 153°
2026-04-30 14:57 35.94696 25.05608 13771 ft 413 kts 153°
2026-04-30 14:57 35.89690 25.09002 12423 ft 408 kts 153°
2026-04-30 14:58 35.84758 25.12339 11120 ft 400 kts 153°
2026-04-30 14:58 35.82326 25.13977 10495 ft 396 kts 153°
2026-04-30 14:58 35.77710 25.17106 9190 ft 360 kts 153°
2026-04-30 14:59 35.73503 25.19951 7882 ft 331 kts 153°
2026-04-30 15:00 35.67881 25.23738 6998 ft 286 kts 154°
2026-04-30 15:00 35.64398 25.26074 7011 ft 285 kts 154°
2026-04-30 15:01 35.60920 25.28403 7014 ft 285 kts 154°
2026-04-30 15:01 35.59186 25.29566 7013 ft 280 kts 154°
2026-04-30 15:01 35.55823 25.31825 7004 ft 274 kts 154°
2026-04-30 15:02 35.54152 25.32946 7004 ft 274 kts 154°
2026-04-30 15:02 35.52483 25.34064 7006 ft 273 kts 154°
2026-04-30 15:03 35.47499 25.37401 6650 ft 268 kts 154°
2026-04-30 15:03 35.44371 25.39497 6368 ft 247 kts 154°
2026-04-30 15:04 35.41327 25.41574 5465 ft 254 kts 153°
2026-04-30 15:04 35.36608 25.43822 4512 ft 239 kts 198°
2026-04-30 15:05 35.33823 25.39199 3527 ft 231 kts 246°
2026-04-30 15:06 35.32744 25.35506 2876 ft 233 kts 266°
2026-04-30 15:06 35.33020 25.31727 2310 ft 211 kts 275°
2026-04-30 15:07 35.33257 25.28364 1789 ft 187 kts 274°
2026-04-30 15:07 35.33454 25.25464 1258 ft 158 kts 275°
2026-04-30 15:08 35.33632 25.22922 771 ft 146 kts 274°
2026-04-30 15:08 35.33890 25.19288 192 ft 141 kts 275°
2026-04-30 15:09 35.34011 25.17500 90 ft 33 kts 275°
2026-04-30 15:09 35.34027 25.17230 85 ft 16 kts 265°
2026-04-30 15:10 35.33981 25.17074 73 ft 1 kts 243°
2026-04-30 15:12 35.33958 25.17058 69 ft 3 kts 173°
2026-04-30 15:13 35.33944 25.17078 74 ft 0 kts 116°
2026-04-30 15:14 35.33937 25.17134 81 ft 7 kts 94°
2026-04-30 15:14 35.33923 25.17332 84 ft 8 kts 94°
2026-04-30 15:16 35.33854 25.17625 93 ft 0 kts 181°
2026-04-30 15:17 35.33851 25.17569 89 ft 1 kts 278°
2026-04-30 15:18 35.33851 25.17553 88 ft 0 kts 274°